FENGYUN 1C DEB

Satellite information

Favourite Embed

Satellite Type and Status

DEBRISIN ORBIT

Key statistics

Satellite FENGYUN 1C DEB at a glance.

Uptime

9555

Days in orbit

Revolutions

≈ 14.2

Per day

Orbit

SSO

Sun Synchronous Orbit

Inclination

98.7

Latest

Satellite identification and parameters

Extended collection of information and parameters for FENGYUN 1C DEB.

Object identification

Identified? True

Debris? True

Object name: FENGYUN 1C DEB

International designator: 1999-025AWH

Object number (NORAD): 30847

Object ID (CCSDS): 30847

Country: PEOPLES REPUBLIC OF CHINA (PRC)

Current information (Y/N): Y

RCS size: SMALL

Orbital parameters

Period: 101.718 minutes

Inclination: 98.7214 deg

SMA: 7218.122 km

Apoapsis: 889.13 km

Periapsis: 790.844 km

RAAN: 350.9792 deg

Eccentricy: 0.0068083

Argument of periapsis: 65.4695 deg

Mean anomaly: 55.2581 deg

Mean motion: 14.15684314 rev/day

Mean motion (dot): 0.00002429 rev/day2

B* drag term: 0.0012324 1/REarth

Two-line elements (TLE)

Creation date: July 6, 2025, 10:46 p.m.

Reference frame: TEME

Reference center: EARTH

Epoch: July 6, 2025, 5:26 p.m. UTC

TLE line 0: 0 FENGYUN 1C DEB

TLE line 1: 1 30847U 99025AWH 25187.72668017 .00002429 00000-0 12324-2 0 9998

TLE line 2: 2 30847 98.7214 350.9792 0068083 65.4695 55.2581 14.15684314938306

Live tracking on map

Real-time ground track for satellite FENGYUN 1C DEB.

In-orbit conjunctions

A list of the most updated potential collisions computed for object FENGYUN 1C DEB.

Target Orbit TCA Probability of collision Miss distance Type
CZ-6A DEB SSO 2025-06-02 07:16:21 0.0001249779 71.0 (m) DEBRIS
SL-3 R/B LEO 2024-10-06 08:40:09 0.0001090225 153.0 (m) ROCKET BODY
FENGYUN 1C DEB SSO 2024-09-12 06:34:40 0.0001874561 101.0 (m) DEBRIS

Associated space launch

Chinese polar orbiting meteorological satellite

FENGYUN 1C DEB was lifted into orbit during the mission ‘Long March 4B | Feng Yun 1C’, on board a Long March 4B space rocket.

The launch took place on May 10, 1999, 1:33 a.m. from Launch Complex 7.

For more information about the launch, click the button.

Launch to space Long March 4B | Feng Yun 1C
Long March 4B | Feng Yun 1C

Agency: N/A

Status: Launch Successful

Launch date: May 10, 1999, 1:33 a.m. UTC

Rocket: Long March 4B

Launch pad: Launch Complex 7

Location: Taiyuan Satellite Launch Center, People's Republic of China

...

Latest news about this satellite

There are no fresh news available about this satellite. Check back as we update our databases every day.


Newsletter sign-up

Weekly statistics, charts and insights to help you stay on top of the space industry.